Hourly Weather Godziszowa

Today, 17 June, Thursday

Time Temperature Precipitation Wind Pressure Humidity
00:00 +18°C° 0 mm 2 mps 747 mmHg 90%
01:00 +18°C° 0 mm 2 mps 747 mmHg 91%
02:00 +17°C° 0 mm 2 mps 747 mmHg 90%
03:00 +17°C° 0 mm 2 mps 747 mmHg 90%
04:00 +17°C° 0 mm 2 mps 747 mmHg 89%
05:00 +19°C° 0 mm 2 mps 747 mmHg 83%
06:00 +21°C° 0 mm 2 mps 747 mmHg 77%
07:00 +23°C° 0 mm 2 mps 747 mmHg 72%
08:00 +25°C° 0 mm 3 mps 747 mmHg 66%
09:00 +26°C° 0 mm 3 mps 748 mmHg 60%
10:00 +28°C° 0 mm 4 mps 748 mmHg 54%
11:00 +28°C° 0 mm 4 mps 748 mmHg 52%
12:00 +29°C° 0 mm 4 mps 747 mmHg 50%
13:00 +30°C° 0 mm 5 mps 747 mmHg 48%
14:00 +30°C° 0 mm 4 mps 747 mmHg 49%
15:00 +30°C° 0 mm 4 mps 747 mmHg 49%
16:00 +30°C° 0 mm 3 mps 747 mmHg 50%
17:00 +28°C° 0 mm 3 mps 747 mmHg 58%
18:00 +27°C° 0 mm 3 mps 747 mmHg 65%
19:00 +26°C° 0 mm 3 mps 747 mmHg 72%
20:00 +24°C° 0 mm 3 mps 747 mmHg 74%
21:00 +22°C° 0 mm 3 mps 747 mmHg 76%
22:00 +21°C° 0 mm 3 mps 747 mmHg 78%
23:00 +20°C° 0 mm 3 mps 747 mmHg 80%

Tomorrow, 18 June, Friday

Time Temperature Precipitation Wind Pressure Humidity
00:00 +19°C° 0 mm 2 mps 747 mmHg 82%
01:00 +19°C° 0 mm 2 mps 747 mmHg 83%
02:00 +18°C° 0 mm 2 mps 747 mmHg 84%
03:00 +18°C° 0 mm 2 mps 747 mmHg 84%
04:00 +18°C° 0 mm 2 mps 747 mmHg 84%
05:00 +20°C° 0 mm 2 mps 747 mmHg 79%
06:00 +23°C° 0 mm 2 mps 747 mmHg 73%
07:00 +25°C° 0 mm 2 mps 747 mmHg 67%
08:00 +26°C° 0 mm 2 mps 747 mmHg 62%
09:00 +28°C° 0 mm 3 mps 747 mmHg 57%
10:00 +29°C° 0 mm 3 mps 747 mmHg 52%
11:00 +30°C° 0 mm 3 mps 747 mmHg 50%
12:00 +31°C° 0 mm 3 mps 746 mmHg 48%
13:00 +32°C° 0 mm 4 mps 746 mmHg 46%
14:00 +32°C° 0 mm 4 mps 746 mmHg 47%
15:00 +32°C° 0 mm 4 mps 746 mmHg 47%
16:00 +31°C° 0 mm 3 mps 746 mmHg 48%
17:00 +30°C° 0 mm 3 mps 746 mmHg 55%
18:00 +28°C° 0 mm 3 mps 745 mmHg 61%
19:00 +27°C° 0 mm 2 mps 745 mmHg 68%
20:00 +25°C° 0 mm 2 mps 745 mmHg 69%
21:00 +24°C° 0 mm 2 mps 746 mmHg 71%
22:00 +21°C° 0 mm 2 mps 746 mmHg 73%
23:00 +21°C° 0 mm 2 mps 746 mmHg 74%

Day after tomorrow, 19 June, Saturday

Time Temperature Precipitation Wind Pressure Humidity
00:00 +20°C° 0 mm 2 mps 746 mmHg 75%
01:00 +20°C° 0 mm 2 mps 745 mmHg 77%
02:00 +20°C° 0 mm 2 mps 746 mmHg 76%
03:00 +19°C° 0 mm 2 mps 746 mmHg 76%
04:00 +19°C° 0 mm 2 mps 746 mmHg 75%
05:00 +21°C° 0 mm 2 mps 746 mmHg 72%
06:00 +24°C° 0 mm 2 mps 746 mmHg 68%
07:00 +26°C° 0 mm 2 mps 746 mmHg 65%
08:00 +28°C° 0 mm 2 mps 746 mmHg 58%
09:00 +29°C° 0 mm 2 mps 746 mmHg 52%
10:00 +31°C° 0 mm 2 mps 746 mmHg 46%
11:00 +31°C° 0 mm 2 mps 745 mmHg 44%
12:00 +32°C° 0 mm 2 mps 745 mmHg 42%
13:00 +34°C° 0 mm 2 mps 745 mmHg 40%
14:00 +33°C° 0 mm 1 mps 745 mmHg 41%
15:00 +33°C° 0 mm 1 mps 745 mmHg 41%
16:00 +33°C° 0 mm 1 mps 745 mmHg 42%
17:00 +31°C° 0 mm 1 mps 745 mmHg 49%
18:00 +30°C° 0 mm 1 mps 745 mmHg 56%
19:00 +29°C° 0 mm 1 mps 744 mmHg 62%
20:00 +27°C° 0.1 mm 1 mps 745 mmHg 68%
21:00 +25°C° 0.1 mm 1 mps 745 mmHg 73%
22:00 +23°C° 0.1 mm 2 mps 745 mmHg 79%
23:00 +22°C° 0.3 mm 1 mps 745 mmHg 82%

20 June, Sunday

Time Temperature Precipitation Wind Pressure Humidity
00:00 +22°C° 0.3 mm 1 mps 745 mmHg 86%
01:00 +21°C° 0.3 mm 1 mps 745 mmHg 89%
02:00 +21°C° 0 mm 1 mps 745 mmHg 88%
03:00 +21°C° 0 mm 1 mps 745 mmHg 88%
04:00 +21°C° 0 mm 1 mps 745 mmHg 87%
05:00 +22°C° 0 mm 1 mps 745 mmHg 82%
06:00 +24°C° 0 mm 1 mps 745 mmHg 78%
07:00 +25°C° 0 mm 1 mps 745 mmHg 73%
08:00 +27°C° 0 mm 1 mps 744 mmHg 68%
09:00 +28°C° 0 mm 2 mps 744 mmHg 64%
10:00 +30°C° 0 mm 2 mps 744 mmHg 59%
11:00 +30°C° 0 mm 2 mps 744 mmHg 56%
12:00 +31°C° 0 mm 3 mps 744 mmHg 52%
13:00 +33°C° 0 mm 3 mps 744 mmHg 49%
14:00 +33°C° 0 mm 3 mps 743 mmHg 49%
15:00 +33°C° 0 mm 4 mps 743 mmHg 49%
16:00 +33°C° 0 mm 4 mps 742 mmHg 50%
17:00 +32°C° 0 mm 4 mps 742 mmHg 56%
18:00 +30°C° 0 mm 3 mps 742 mmHg 63%
19:00 +28°C° 0 mm 3 mps 742 mmHg 70%
20:00 +27°C° 0 mm 3 mps 742 mmHg 72%
21:00 +25°C° 0 mm 3 mps 742 mmHg 75%
22:00 +24°C° 0 mm 3 mps 741 mmHg 77%
23:00 +22°C° 0 mm 3 mps 742 mmHg 78%

21 June, Monday

Time Temperature Precipitation Wind Pressure Humidity
00:00 +23°C° 0 mm 2 mps 742 mmHg 79%
01:00 +21°C° 0 mm 2 mps 742 mmHg 80%
02:00 +21°C° 0 mm 2 mps 742 mmHg 81%
03:00 +21°C° 0 mm 2 mps 742 mmHg 81%
04:00 +21°C° 0 mm 2 mps 742 mmHg 82%
05:00 +24°C° 0 mm 2 mps 741 mmHg 77%
06:00 +25°C° 0 mm 3 mps 741 mmHg 73%
07:00 +27°C° 0 mm 3 mps 741 mmHg 69%
08:00 +28°C° 0 mm 3 mps 741 mmHg 64%
09:00 +29°C° 0 mm 3 mps 741 mmHg 60%
10:00 +31°C° 0 mm 3 mps 741 mmHg 55%
11:00 +31°C° 0 mm 3 mps 741 mmHg 54%
12:00 +33°C° 0 mm 3 mps 741 mmHg 52%
13:00 +34°C° 0 mm 3 mps 741 mmHg 50%
14:00 +33°C° 0.1 mm 3 mps 741 mmHg 53%
15:00 +33°C° 0.1 mm 3 mps 741 mmHg 55%
16:00 +31°C° 0.1 mm 3 mps 741 mmHg 57%
17:00 +30°C° 0.1 mm 2 mps 741 mmHg 63%
18:00 +29°C° 0.1 mm 2 mps 741 mmHg 69%
19:00 +28°C° 0.1 mm 1 mps 740 mmHg 75%
20:00 +27°C° 0.4 mm 1 mps 741 mmHg 78%
21:00 +25°C° 0.4 mm 1 mps 741 mmHg 82%
22:00 +24°C° 0.4 mm 1 mps 741 mmHg 86%
23:00 +24°C° 0 mm 1 mps 741 mmHg 86%

22 June, Tuesday

Time Temperature Precipitation Wind Pressure Humidity
00:00 +23°C° 0 mm 1 mps 740 mmHg 87%
01:00 +23°C° 0 mm 1 mps 740 mmHg 88%
02:00 +23°C° 0 mm 1 mps 740 mmHg 88%
03:00 +22°C° 0 mm 1 mps 740 mmHg 88%
04:00 +22°C° 0 mm 1 mps 740 mmHg 89%
05:00 +23°C° 0.1 mm 1 mps 740 mmHg 85%
06:00 +25°C° 0.1 mm 1 mps 740 mmHg 81%
07:00 +26°C° 0.1 mm 1 mps 740 mmHg 77%
08:00 +27°C° 0.8 mm 1 mps 741 mmHg 73%
09:00 +28°C° 0.8 mm 2 mps 741 mmHg 68%
10:00 +29°C° 0.8 mm 2 mps 741 mmHg 64%
11:00 +28°C° 0.8 mm 2 mps 741 mmHg 67%
12:00 +28°C° 0.8 mm 3 mps 741 mmHg 71%
13:00 +27°C° 0.8 mm 3 mps 741 mmHg 75%
14:00 +26°C° 0.5 mm 3 mps 741 mmHg 76%
15:00 +26°C° 0.5 mm 3 mps 742 mmHg 78%
16:00 +25°C° 0.5 mm 3 mps 742 mmHg 80%
17:00 +25°C° 0.2 mm 3 mps 742 mmHg 81%
18:00 +25°C° 0.2 mm 3 mps 742 mmHg 82%
19:00 +23°C° 0.2 mm 4 mps 742 mmHg 83%
20:00 +22°C° 0 mm 3 mps 743 mmHg 87%
21:00 +21°C° 0 mm 2 mps 743 mmHg 90%
22:00 +20°C° 0 mm 2 mps 743 mmHg 94%
23:00 +20°C° 0 mm 2 mps 743 mmHg 94%
Show more

We Need Your Consent

Meteoprog and our Service Providers may store and access personal data such as cookies, device identifiers or other similar technologies on your device and process such data to personalise content and ads, as well as provide social media features and to analyse the traffic.

  • Store and/or access information on your device

    Cookies, device identifiers or other information can be stored or accessed on your device for the purposes indicated above.

  • Personalised ads and content, ad and content measurement, audience insights, and products development

    Ads and content can be personalised based on a profile. More data can be added to better personalise ads and content. Ad and content performance can be measured. Insights about the audience who saw the ads and content can be derived. Such data can be used to develop or improve user’s experience, systems and software.

By clicking ‘I Agree’ you will allow the use of indicated cookies, device identifiers, web beacons or other similar technologies. Your settings can be changed in the browser on your device.

For certain purposes, legitimate interests may be relied on, rather than consent. You can read more about this in our Privacy and Cookie Policy.